#timestamp,LO_Frequency,Hit,StdDev 
1506016815.6,286047001.6,N
1506016835.4,286047000.9,N
1506016855.3,286046999.6,N
1506016875.1,286046997.3,N
1506016876.0,286046997.3,N
1506016895.8,286046996.9,N
1506016915.7,286046997.1,N
1506016935.5,286047001.1,N
1506016955.3,286046998.6,N
1506016975.2,286046998.1,N
1506016995.0,286047002.3,N
1506016995.9,286047002.3,N
1506017015.8,286047001.7,N
1506017035.6,286047003.4,N
1506017055.4,286047007.3,N
1506017075.3,286047004.5,N
1506017095.1,286047006.6,N
1506017115.9,286047007.8,N
1506017135.7,286047006.1,N
1506017155.5,286047003.3,N
1506017175.4,286047003.2,N
1506017195.2,286047002.1,N
1506017215.0,286046999.8,N
1506017215.9,286046999.8,N
1506017235.8,286046999.7,N
1506017255.6,286047001.8,N
1506017275.5,286047006.0,N
1506017295.3,286047007.2,N
1506017315.1,286047006.4,N
1506017335.9,286047004.2,N
1506017355.7,286047002.7,N
1506017375.5,286046999.6,N
1506017395.4,286046995.3,N
1506017415.2,286046998.5,N
1506017435.1,286046998.7,N
1506017436.0,286046998.7,N
1506017455.8,286047000.7,N
1506017475.6,286047000.8,N
1506017495.5,286047006.0,N
1506017515.3,286047002.5,N
1506017535.1,286046998.1,N
1506017555.9,286046998.7,N
1506017575.7,286047000.8,N
1506017595.6,286046998.4,N
1506017615.4,286046998.1,N
1506017635.2,286046999.3,N
1506017655.1,286047000.7,N
1506017656.0,286047000.7,N
1506017675.8,286046998.2,N
1506017695.7,286047000.0,N
1506017715.5,286047001.4,N
1506017735.3,286047000.4,N
1506017755.2,286047002.5,N
1506017775.9,286046999.9,N
1506017795.7,286047000.0,N
1506017815.6,286047000.8,N
1506017835.4,286046996.9,N
1506017855.3,286047001.0,N
1506017875.1,286046999.9,N
1506017876.0,286046999.9,N
1506017895.8,286046998.9,N
1506017915.7,286046996.6,N
1506017935.5,286046996.7,N
1506017955.3,286046999.5,N
1506017975.2,286047000.3,N
1506017995.0,286047003.4,N
1506017995.9,286047003.4,N
1506018015.8,286047005.8,N
1506018035.6,286047007.3,Y
1506018055.4,286047005.1,P
1506018075.3,286047006.6,N
1506018095.1,286047004.1,N
1506018115.9,286047000.2,N
1506018135.7,286047000.1,N
1506018155.5,286047000.6,N
1506018175.4,286047000.1,N
1506018195.2,286047002.5,N
1506018215.0,286046998.8,N
1506018215.9,286046998.8,N
1506018235.8,286047001.1,N
1506018255.6,286046999.0,N
1506018275.5,286046999.4,N
1506018295.3,286047000.2,N
1506018315.1,286047002.4,N
1506018335.9,286047000.3,N
1506018355.7,286046998.3,N
1506018375.5,286046999.9,N
1506018395.4,286047000.4,N
1506018415.2,286047003.9,N
1506018435.1,286047004.7,N
1506018466.0,286047009.0,E
1506018475.0,286047004.2,N
1506018475.9,286047004.2,P
1506018495.8,286046996.1,P
1506018515.6,286046994.6,N
1506018535.4,286046990.5,N
1506018555.3,286046990.6,N
1506018575.1,286046990.9,N
1506018595.8,286046990.5,N
1506018615.7,286046991.0,N
1506018635.5,286046993.3,N
1506018655.4,286046998.4,N
1506018675.2,286047001.2,N
1506018695.0,286047000.3,N
1506018695.9,286047000.3,N
1506018715.8,286046997.9,N
1506018735.6,286046994.5,N
1506018755.4,286046988.7,N
1506018775.3,286046991.1,N
1506018795.1,286046991.3,N
1506018815.9,286046990.8,N
1506018835.7,286046994.0,N
1506018855.5,286046998.0,N
1506018875.4,286046997.6,N
1506018895.2,286046999.5,N
1506018915.0,286046995.3,N
1506018915.9,286046995.3,N
1506018935.8,286046996.4,N
1506018955.6,286046996.1,N
1506018975.5,286046997.4,N
1506018995.3,286046997.4,N
1506019015.1,286046995.0,N
1506019035.9,286046993.8,N
1506019055.7,286046992.9,N
1506019075.5,286046991.6,N
1506019095.4,286046989.4,Y
1506019115.2,286046993.3,P
1506019135.1,286046994.3,P
1506019136.0,286046994.3,P
1506019155.8,286046994.2,Y
1506019175.6,286047000.8,P
1506019195.5,286046998.6,N
1506019215.3,286046998.8,N
1506019235.2,286046998.4,N
1506019255.9,286046999.9,N
1506019275.7,286047003.7,N
1506019295.6,286047005.1,N
1506019315.4,286047005.6,N
1506019335.2,286047003.4,N
1506019355.1,286047007.4,N
1506019356.0,286047007.4,N
1506019375.8,286047004.7,N
1506019395.7,286047007.5,N
1506019415.5,286047008.0,N
1506019435.3,286047011.4,N
1506019455.2,286047011.8,N
1506019475.9,286047010.6,N
1506019495.7,286047012.4,N
1506019515.6,286047010.2,N
1506019535.4,286047011.6,N
1506019555.3,286047012.8,N
1506019575.1,286047011.1,N
1506019576.0,286047011.1,N
1506019595.8,286047010.1,N
1506019615.7,286047008.0,N
1506019635.5,286047006.1,N
1506019655.3,286047008.0,N
1506019675.2,286047007.9,N
1506019695.0,286047006.6,N
1506019695.9,286047006.6,N
1506019715.8,286047005.1,N
1506019735.6,286047004.0,N
1506019755.4,286047001.4,N
1506019775.3,286047003.2,N
1506019795.1,286047004.3,N
1506019815.8,286047003.9,N
1506019835.7,286047002.6,N
1506019855.5,286046999.8,N
1506019875.4,286047002.5,N
1506019895.2,286047002.2,N
1506019915.0,286047000.5,N
1506019915.9,286047000.5,N
1506019935.8,286046999.9,N
1506019955.6,286047001.4,N
1506019975.4,286046999.7,N
1506019995.3,286047002.2,N
1506020015.1,286047003.5,N
1506020035.9,286047002.0,N
1506020055.7,286047004.1,N
1506020075.5,286047001.3,N
1506020095.4,286047000.1,N
1506020115.2,286047000.7,N
1506020135.0,286047002.4,N
1506020136.0,286047002.4,N
1506020155.8,286047002.7,N
1506020175.6,286046999.8,N
1506020195.5,286047000.7,N
1506020215.3,286047000.6,N
1506020235.1,286046999.8,N
1506020255.9,286047000.4,N
1506020275.7,286047002.0,N
1506020295.6,286047004.2,N
1506020315.4,286047005.2,Y
1506020335.2,286047003.2,P
1506020355.1,286047003.8,P
1506020356.0,286047003.8,P
1506020375.8,286047005.6,Y
1506020395.7,286047001.4,P
